Torna al catalogo

METEOR 2-12

AttivoMeteoPO
NORAD 15516·PAYLOAD·🇷🇺 Russia

Lanciato Feb 6, 1985 da Plesetsk Cosmodrome

Loading…

Prossimi Passaggi (prossime 24 ore)

TLE

AggiornatoSource: Space-Track

Epoca: Sep 14, 2026, 00:38 UTC

1 15516U 85013A   26257.02647808  .00000027  00000-0  10129-4 0  9998
2 15516  82.5272 260.8712 0016215  33.8899 326.3295 13.85870914104110

Traccia METEOR 2-12 in tempo reale con AllMySat

Download on the App Store